Home   Weather   Kigali   Past weeks
Flag for Rwanda

Past Weather in Kigali, Rwanda — Yesterday and Last 2 Weeks

Now
73 °F

Scattered clouds.


Feels Like: 76 °F
Forecast: 80 / 59 °F
Wind: No wind

Location: Kigali Airport

Current Time: Mar 20, 2019 at 10:02:08 am

Latest Report: Mar 20, 2019 at 9:00 am


Visibility: N/A

Pressure: 30.12 "Hg (25.17 "Hg at 1555m altitude)

Humidity: 65%

Dew Point: 61 °F

Location of KigaliLocation

Past Weather in Kigali — Graph

°F

Kigali Temperature Yesterday

Maximum temperature yesterday: 82 °F (at 12:00 pm)
Minimum temperature yesterday: 61 °F (at 6:30 am)
Average temperature yesterday: 71 °F

High & Low Weather Summary for the Past Weeks

 TemperatureHumidityPressure
High88 °F (Mar 9, 2:30 pm)100% (Mar 7, 1:30 am)30.30 "Hg (Mar 7, 1:30 am)
Low59 °F (Mar 15, 4:00 am)30% (Mar 8, 12:00 pm)29.98 "Hg (Mar 19, 3:00 pm)
Average70 °F73%30.11 "Hg
* Reported Mar 5 8:00 am — Mar 20 8:00 am, Kigali. Weather by CustomWeather, © 2019

Note: Actual official high and low records may vary slightly from our data, if they occured in-between our weather recording intervals... More about our weather records

Advertising

Kigali Weather History for the Previous 24 Hours

Scroll right to see more
 ConditionsComfort  
Time TempWeatherWind HumidityBarometerVisibility
8:00 am
Wed, Mar 20
66 °FBroken clouds.No wind83%30.12 "HgN/A
7:30 am64 °FBroken clouds.No wind88%30.09 "Hg6 mi
7:00 am63 °FScattered clouds.3 mph88%30.09 "Hg6 mi
6:30 am63 °FScattered clouds.2 mph88%30.07 "HgN/A
6:00 am63 °FPartly cloudy.3 mph88%30.07 "HgN/A
5:30 am63 °FPartly cloudy.2 mph88%30.07 "HgN/A
5:00 am63 °FPartly cloudy.1 mph88%30.04 "HgN/A
4:30 am63 °FPassing clouds.No wind88%30.04 "HgN/A
4:00 am63 °FPassing clouds.No wind88%30.04 "HgN/A
3:30 am63 °FPassing clouds.1 mph88%30.04 "HgN/A
3:00 am63 °FPassing clouds.3 mph88%30.01 "HgN/A
2:30 am64 °FPassing clouds.2 mph83%30.01 "HgN/A
2:00 am63 °FPassing clouds.5 mph88%30.01 "HgN/A
1:30 am64 °FPassing clouds.2 mph88%30.01 "HgN/A
1:00 am64 °FPassing clouds.5 mph78%30.04 "HgN/A
12:00 am66 °FPassing clouds.2 mph78%30.07 "HgN/A
11:30 pm
Tue, Mar 19
68 °FPassing clouds.3 mph73%30.07 "HgN/A
11:00 pm68 °FPassing clouds.2 mph73%30.07 "HgN/A
10:30 pm70 °FPassing clouds.3 mph64%30.07 "HgN/A
10:00 pm70 °FPassing clouds.2 mph64%30.07 "HgN/A
9:30 pm72 °FPassing clouds.2 mph65%30.07 "HgN/A
9:00 pm70 °FPassing clouds.2 mph69%30.07 "HgN/A
8:30 pm72 °FPassing clouds.6 mph61%30.04 "HgN/A
8:00 pm72 °FPassing clouds.3 mph57%30.04 "HgN/A
7:30 pm75 °FPassing clouds.3 mph47%30.04 "HgN/A
7:00 pm75 °FPassing clouds.3 mph47%30.04 "HgN/A
6:30 pm75 °FPassing clouds.5 mph50%30.04 "HgN/A
6:00 pm77 °FPassing clouds.5 mph51%30.01 "HgN/A
5:30 pm79 °FPassing clouds.6 mph48%30.01 "HgN/A
5:00 pm81 °FPassing clouds.8 mph48%29.98 "HgN/A
4:30 pm81 °FScattered clouds.7 mph54%29.98 "HgN/A
4:00 pm77 °FScattered clouds.12 mph65%29.98 "HgN/A
3:00 pm75 °FLight rain. Passing clouds.7 mph61%29.98 "HgN/A
2:30 pm77 °FPartly sunny.12 mph57%30.01 "HgN/A
2:00 pm81 °FPartly sunny.8 mph48%30.01 "HgN/A
1:30 pm81 °FScattered clouds.9 mph45%30.01 "HgN/A
1:00 pm82 °FScattered clouds.7 mph45%30.01 "HgN/A
12:30 pm82 °FScattered clouds.6 mph45%30.07 "HgN/A
12:00 pm82 °FScattered clouds.8 mph42%30.09 "HgN/A
11:30 am81 °FPassing clouds.7 mph51%30.12 "HgN/A
11:00 am79 °FPassing clouds.7 mph54%30.12 "HgN/A
10:30 am79 °FScattered clouds.5 mph54%30.12 "HgN/A
10:00 am77 °FScattered clouds.2 mph61%30.12 "HgN/A
Weather by CustomWeather, © 2019

See weather overview